Time,TemperatureF,DewpointF,PressureIn,WindDirection,WindDirectionDegrees,WindSpeedMPH,WindSpeedGustMPH,Humidity,HourlyPrecipIn,Conditions,Clouds,dailyrainin,SoftwareType,DateUTC
2013-07-12 00:01:00,78.5,67.9,27.27,NE,45,0.4,0.4,70,0.00,,,0.00,WUHU216HW,2013-07-12 07:01:00,
2013-07-12 00:06:00,78.5,67.9,27.27,NE,45,0.0,0.4,70,0.00,,,0.00,WUHU216HW,2013-07-12 07:06:00,
2013-07-12 00:11:00,78.3,68.1,27.27,NE,45,0.0,0.4,71,0.00,,,0.00,WUHU216HW,2013-07-12 07:11:00,
2013-07-12 00:16:00,78.3,68.1,27.27,NE,45,0.4,0.4,71,0.00,,,0.00,WUHU216HW,2013-07-12 07:16:00,
2013-07-12 00:21:00,78.5,68.3,27.27,NE,45,0.0,0.4,71,0.00,,,0.00,WUHU216HW,2013-07-12 07:21:00,
2013-07-12 00:26:00,78.5,68.3,27.27,NE,45,0.9,0.9,71,0.00,,,0.00,WUHU216HW,2013-07-12 07:26:00,
2013-07-12 00:31:00,78.5,68.3,27.27,ESE,113,0.4,0.9,71,0.00,,,0.00,WUHU216HW,2013-07-12 07:31:00,
2013-07-12 00:36:00,78.3,68.1,27.27,ENE,68,0.0,0.4,71,0.00,,,0.00,WUHU216HW,2013-07-12 07:36:00,
2013-07-12 00:41:00,78.3,68.1,27.27,NE,45,0.2,0.7,71,0.00,,,0.00,WUHU216HW,2013-07-12 07:41:00,
2013-07-12 00:46:00,78.3,67.8,27.27,NE,45,0.0,0.7,70,0.00,,,0.00,WUHU216HW,2013-07-12 07:46:00,
2013-07-12 00:51:00,78.1,67.6,27.27,North,0,0.0,1.1,70,0.00,,,0.00,WUHU216HW,2013-07-12 07:51:00,
2013-07-12 00:56:00,78.1,67.6,27.27,North,0,0.0,1.1,70,0.00,,,0.00,WUHU216HW,2013-07-12 07:56:00,
2013-07-12 01:01:00,77.9,68.6,27.27,North,0,0.0,0.4,73,0.00,,,0.00,WUHU216HW,2013-07-12 08:01:00,
2013-07-12 01:06:00,77.9,68.6,27.28,NNE,23,0.7,0.7,73,0.00,,,0.00,WUHU216HW,2013-07-12 08:06:00,
2013-07-12 01:11:00,78.1,69.1,27.28,NNE,23,1.1,1.8,74,0.00,,,0.00,WUHU216HW,2013-07-12 08:11:00,
2013-07-12 01:16:00,78.1,69.5,27.28,North,0,1.1,1.8,75,0.00,,,0.00,WUHU216HW,2013-07-12 08:16:00,
2013-07-12 01:17:00,78.1,69.5,27.28,North,0,1.1,1.8,75,0.00,,,0.00,WUHU216HW,2013-07-12 08:17:00,
2013-07-12 01:22:00,78.1,69.5,27.28,NNE,23,0.7,2.2,75,0.00,,,0.00,WUHU216HW,2013-07-12 08:22:00,
2013-07-12 01:27:00,77.9,69.3,27.28,North,0,0.4,2.2,75,0.00,,,0.00,WUHU216HW,2013-07-12 08:27:00,
2013-07-12 01:32:00,77.8,69.6,27.28,NNE,23,1.3,1.8,76,0.00,,,0.00,WUHU216HW,2013-07-12 08:32:00,
2013-07-12 01:37:00,77.8,69.2,27.28,NNE,23,0.4,1.8,75,0.00,,,0.00,WUHU216HW,2013-07-12 08:37:00,
2013-07-12 01:42:00,77.6,69.0,27.28,ENE,68,0.9,1.3,75,0.00,,,0.00,WUHU216HW,2013-07-12 08:42:00,
2013-07-12 01:47:00,77.6,69.0,27.28,ENE,68,0.2,1.1,75,0.00,,,0.00,WUHU216HW,2013-07-12 08:47:00,
2013-07-12 01:52:00,77.4,68.9,27.28,NNE,23,1.1,1.3,75,0.00,,,0.00,WUHU216HW,2013-07-12 08:52:00,
2013-07-12 01:57:00,77.4,68.9,27.28,NE,45,0.0,1.3,75,0.00,,,0.00,WUHU216HW,2013-07-12 08:57:00,
2013-07-12 02:02:00,77.4,68.5,27.28,NE,45,0.0,1.1,74,0.00,,,0.00,WUHU216HW,2013-07-12 09:02:00,
2013-07-12 02:07:00,77.4,68.5,27.28,NE,45,0.4,0.7,74,0.00,,,0.00,WUHU216HW,2013-07-12 09:07:00,
2013-07-12 02:12:00,77.4,68.5,27.27,NNE,23,1.3,1.3,74,0.00,,,0.00,WUHU216HW,2013-07-12 09:12:00,
2013-07-12 02:17:00,77.4,68.5,27.27,NE,45,0.0,1.3,74,0.00,,,0.00,WUHU216HW,2013-07-12 09:17:00,
2013-07-12 02:22:00,77.4,68.0,27.27,NE,45,0.0,1.1,73,0.00,,,0.00,WUHU216HW,2013-07-12 09:22:00,
2013-07-12 02:27:00,77.4,68.0,27.27,NE,45,0.4,0.7,73,0.00,,,0.00,WUHU216HW,2013-07-12 09:27:00,
2013-07-12 02:32:00,77.4,68.0,27.27,NNE,23,0.0,0.7,73,0.00,,,0.00,WUHU216HW,2013-07-12 09:32:00,
2013-07-12 02:37:00,77.6,68.2,27.27,ENE,68,0.0,0.9,73,0.00,,,0.00,WUHU216HW,2013-07-12 09:37:00,
2013-07-12 02:42:00,77.4,68.0,27.27,ENE,68,0.4,0.9,73,0.00,,,0.00,WUHU216HW,2013-07-12 09:42:00,
2013-07-12 02:47:00,77.4,68.0,27.27,North,0,0.2,0.9,73,0.00,,,0.00,WUHU216HW,2013-07-12 09:47:00,
2013-07-12 02:52:00,77.4,68.0,27.27,ESE,113,0.4,0.9,73,0.00,,,0.00,WUHU216HW,2013-07-12 09:52:00,
2013-07-12 02:57:00,77.4,68.0,27.27,East,90,0.4,1.1,73,0.00,,,0.00,WUHU216HW,2013-07-12 09:57:00,
2013-07-12 03:02:00,77.4,68.0,27.27,ENE,68,0.7,1.1,73,0.00,,,0.00,WUHU216HW,2013-07-12 10:02:00,
2013-07-12 03:07:00,77.4,68.0,27.27,ESE,113,0.0,0.7,73,0.00,,,0.00,WUHU216HW,2013-07-12 10:07:00,
2013-07-12 03:12:00,77.4,68.5,27.27,ENE,68,0.0,0.7,74,0.00,,,0.00,WUHU216HW,2013-07-12 10:12:00,
2013-07-12 03:17:00,77.4,68.5,27.27,NNE,23,0.2,0.4,74,0.00,,,0.00,WUHU216HW,2013-07-12 10:17:00,
2013-07-12 03:22:00,77.2,68.3,27.28,NE,45,0.0,0.4,74,0.00,,,0.00,WUHU216HW,2013-07-12 10:22:00,
2013-07-12 03:27:00,77.2,67.9,27.28,NNE,23,0.0,1.1,73,0.00,,,0.00,WUHU216HW,2013-07-12 10:27:00,
2013-07-12 03:32:00,77.2,68.3,27.28,North,0,1.1,1.3,74,0.00,,,0.00,WUHU216HW,2013-07-12 10:32:00,
2013-07-12 03:37:00,77.2,68.3,27.28,NNE,23,0.7,1.3,74,0.00,,,0.00,WUHU216HW,2013-07-12 10:37:00,
2013-07-12 03:42:00,77.2,68.7,27.28,North,0,0.4,1.1,75,0.00,,,0.00,WUHU216HW,2013-07-12 10:42:00,
2013-07-12 03:47:00,77.2,68.7,27.28,NNW,338,0.2,1.1,75,0.00,,,0.00,WUHU216HW,2013-07-12 10:47:00,
2013-07-12 03:52:00,77.2,68.7,27.28,NNW,338,0.0,1.1,75,0.00,,,0.00,WUHU216HW,2013-07-12 10:52:00,
2013-07-12 03:57:00,77.0,68.5,27.28,NNW,338,1.6,1.6,75,0.00,,,0.00,WUHU216HW,2013-07-12 10:57:00,
2013-07-12 04:02:00,77.0,68.1,27.28,North,0,0.0,1.6,74,0.00,,,0.00,WUHU216HW,2013-07-12 11:02:00,
2013-07-12 04:07:00,77.0,68.1,27.28,NNW,338,0.9,0.9,74,0.00,,,0.00,WUHU216HW,2013-07-12 11:07:00,
2013-07-12 04:12:00,76.9,68.0,27.28,NNW,338,0.0,0.9,74,0.00,,,0.00,WUHU216HW,2013-07-12 11:12:00,
2013-07-12 04:17:00,76.7,67.8,27.29,NNW,338,0.0,0.7,74,0.00,,,0.00,WUHU216HW,2013-07-12 11:17:00,
2013-07-12 04:22:00,76.7,68.1,27.30,NNE,23,0.4,0.9,75,0.00,,,0.00,WUHU216HW,2013-07-12 11:22:00,
2013-07-12 04:27:00,76.9,68.0,27.30,NNE,23,0.0,0.9,74,0.00,,,0.00,WUHU216HW,2013-07-12 11:27:00,
2013-07-12 04:32:00,76.9,68.0,27.30,North,0,0.2,0.9,74,0.00,,,0.00,WUHU216HW,2013-07-12 11:32:00,
2013-07-12 04:37:00,77.0,67.8,27.30,North,0,0.0,1.1,73,0.00,,,0.00,WUHU216HW,2013-07-12 11:37:00,
2013-07-12 04:42:00,77.0,67.8,27.30,North,0,0.4,1.1,73,0.00,,,0.00,WUHU216HW,2013-07-12 11:42:00,
2013-07-12 04:47:00,77.0,67.8,27.30,North,0,1.1,1.1,73,0.00,,,0.00,WUHU216HW,2013-07-12 11:47:00,
2013-07-12 04:52:00,77.0,67.8,27.30,NNE,23,0.4,1.8,73,0.00,,,0.00,WUHU216HW,2013-07-12 11:52:00,
2013-07-12 04:57:00,77.0,67.3,27.30,NNE,23,0.9,1.8,72,0.00,,,0.00,WUHU216HW,2013-07-12 11:57:00,
2013-07-12 05:02:00,77.2,67.1,27.30,North,0,0.0,1.1,71,0.00,,,0.00,WUHU216HW,2013-07-12 12:02:00,
2013-07-12 05:07:00,77.0,67.0,27.30,North,0,0.4,1.1,71,0.00,,,0.00,WUHU216HW,2013-07-12 12:07:00,
2013-07-12 05:12:00,77.2,67.1,27.30,North,0,0.0,1.1,71,0.00,,,0.00,WUHU216HW,2013-07-12 12:12:00,
2013-07-12 05:17:00,77.0,67.0,27.30,North,0,0.0,0.4,71,0.00,,,0.00,WUHU216HW,2013-07-12 12:17:00,
2013-07-12 05:22:00,77.0,67.0,27.30,North,0,0.0,0.0,71,0.00,,,0.00,WUHU216HW,2013-07-12 12:22:00,
2013-07-12 05:27:00,77.0,67.3,27.30,North,0,0.0,0.2,72,0.00,,,0.00,WUHU216HW,2013-07-12 12:27:00,
2013-07-12 05:32:00,77.0,67.3,27.31,NE,45,0.0,0.4,72,0.00,,,0.00,WUHU216HW,2013-07-12 12:32:00,
2013-07-12 05:37:00,77.0,67.3,27.31,NE,45,0.0,0.4,72,0.00,,,0.00,WUHU216HW,2013-07-12 12:37:00,
2013-07-12 05:42:00,77.0,67.0,27.31,NE,45,0.0,0.4,71,0.00,,,0.00,WUHU216HW,2013-07-12 12:42:00,
2013-07-12 05:47:00,77.0,67.0,27.31,North,0,0.0,0.7,71,0.00,,,0.00,WUHU216HW,2013-07-12 12:47:00,
2013-07-12 05:52:00,77.0,66.6,27.31,NNW,338,0.4,0.7,70,0.00,,,0.00,WUHU216HW,2013-07-12 12:52:00,
2013-07-12 05:57:00,77.2,67.1,27.31,North,0,0.2,0.7,71,0.00,,,0.00,WUHU216HW,2013-07-12 12:57:00,
2013-07-12 06:02:00,77.4,67.3,27.31,NNE,23,0.2,0.4,71,0.00,,,0.00,WUHU216HW,2013-07-12 13:02:00,
2013-07-12 06:07:00,77.4,68.0,27.31,North,0,0.9,1.6,73,0.00,,,0.00,WUHU216HW,2013-07-12 13:07:00,
2013-07-12 06:12:00,77.6,68.6,27.31,ENE,68,0.9,1.6,74,0.00,,,0.00,WUHU216HW,2013-07-12 13:12:00,
2013-07-12 06:17:00,77.6,68.2,27.31,NNE,23,0.4,1.8,73,0.00,,,0.00,WUHU216HW,2013-07-12 13:17:00,
2013-07-12 06:22:00,77.8,68.1,27.31,NNE,23,1.1,2.0,72,0.00,,,0.00,WUHU216HW,2013-07-12 13:22:00,
2013-07-12 06:27:00,78.1,68.0,27.31,North,0,1.8,2.7,71,0.00,,,0.00,WUHU216HW,2013-07-12 13:27:00,
2013-07-12 06:32:00,78.1,68.0,27.31,NNE,23,2.0,3.6,71,0.00,,,0.00,WUHU216HW,2013-07-12 13:32:00,
2013-07-12 06:37:00,78.3,67.8,27.31,West,270,1.6,3.6,70,0.00,,,0.00,WUHU216HW,2013-07-12 13:37:00,
2013-07-12 06:42:00,78.3,68.1,27.31,NNW,338,1.6,2.7,71,0.00,,,0.00,WUHU216HW,2013-07-12 13:42:00,
2013-07-12 06:47:00,78.5,68.3,27.31,North,0,1.3,2.9,71,0.00,,,0.00,WUHU216HW,2013-07-12 13:47:00,
2013-07-12 06:52:00,78.5,68.3,27.31,NW,315,1.6,2.9,71,0.00,,,0.00,WUHU216HW,2013-07-12 13:52:00,
2013-07-12 06:57:00,78.5,68.3,27.31,NNE,23,1.3,2.0,71,0.00,,,0.00,WUHU216HW,2013-07-12 13:57:00,
2013-07-12 07:02:00,78.7,68.5,27.31,NNW,338,1.1,2.5,71,0.00,,,0.00,WUHU216HW,2013-07-12 14:02:00,
2013-07-12 07:07:00,78.8,68.6,27.31,North,0,1.6,2.5,71,0.00,,,0.00,WUHU216HW,2013-07-12 14:07:00,
2013-07-12 07:12:00,78.8,68.6,27.31,North,0,1.1,2.2,71,0.00,,,0.00,WUHU216HW,2013-07-12 14:12:00,
2013-07-12 07:17:00,79.0,68.4,27.31,NNW,338,0.4,2.7,70,0.00,,,0.00,WUHU216HW,2013-07-12 14:17:00,
2013-07-12 07:22:00,79.2,68.1,27.31,North,0,0.4,2.7,69,0.00,,,0.00,WUHU216HW,2013-07-12 14:22:00,
2013-07-12 07:27:00,79.2,67.2,27.32,NNW,338,1.8,2.5,67,0.00,,,0.00,WUHU216HW,2013-07-12 14:27:00,
2013-07-12 07:32:00,79.6,67.1,27.32,NNW,338,1.8,2.5,66,0.00,,,0.00,WUHU216HW,2013-07-12 14:32:00,
2013-07-12 07:37:00,79.6,66.8,27.31,North,0,2.2,3.8,65,0.00,,,0.00,WUHU216HW,2013-07-12 14:37:00,
2013-07-12 07:42:00,79.6,66.8,27.32,North,0,1.8,3.8,65,0.00,,,0.00,WUHU216HW,2013-07-12 14:42:00,
2013-07-12 07:47:00,79.6,66.8,27.31,North,0,2.7,3.6,65,0.00,,,0.00,WUHU216HW,2013-07-12 14:47:00,
2013-07-12 07:52:00,79.7,66.9,27.32,NNE,23,2.5,4.5,65,0.00,,,0.00,WUHU216HW,2013-07-12 14:52:00,
2013-07-12 07:57:00,79.7,66.9,27.32,North,0,2.5,4.5,65,0.00,,,0.00,WUHU216HW,2013-07-12 14:57:00,
2013-07-12 08:02:00,79.9,66.6,27.32,North,0,0.4,3.1,64,0.00,,,0.00,WUHU216HW,2013-07-12 15:02:00,
2013-07-12 08:07:00,80.3,67.0,27.31,NNW,338,2.5,2.5,64,0.00,,,0.00,WUHU216HW,2013-07-12 15:07:00,
2013-07-12 08:12:00,80.5,66.2,27.31,North,0,1.6,2.5,62,0.00,,,0.00,WUHU216HW,2013-07-12 15:12:00,
2013-07-12 08:17:00,80.6,66.4,27.32,NNW,338,2.5,3.1,62,0.00,,,0.00,WUHU216HW,2013-07-12 15:17:00,
2013-07-12 08:22:00,81.0,66.8,27.32,North,0,1.8,3.4,62,0.00,,,0.00,WUHU216HW,2013-07-12 15:22:00,
2013-07-12 08:27:00,81.7,67.0,27.32,North,0,2.5,3.4,61,0.00,,,0.00,WUHU216HW,2013-07-12 15:27:00,
2013-07-12 08:32:00,82.3,67.0,27.32,ENE,68,1.6,2.5,60,0.00,,,0.00,WUHU216HW,2013-07-12 15:32:00,
2013-07-12 08:37:00,82.8,66.4,27.32,North,0,1.6,2.5,58,0.00,,,0.00,WUHU216HW,2013-07-12 15:37:00,
2013-07-12 08:42:00,83.2,66.3,27.32,NNW,338,1.1,2.9,57,0.00,,,0.00,WUHU216HW,2013-07-12 15:42:00,
2013-07-12 08:47:00,83.7,66.9,27.32,North,0,1.1,2.9,57,0.00,,,0.00,WUHU216HW,2013-07-12 15:47:00,
2013-07-12 08:52:00,83.9,66.5,27.32,NNW,338,3.4,3.4,56,0.00,,,0.00,WUHU216HW,2013-07-12 15:52:00,
2013-07-12 08:57:00,84.4,66.5,27.32,North,0,1.3,3.4,55,0.00,,,0.00,WUHU216HW,2013-07-12 15:57:00,
2013-07-12 09:02:00,84.6,65.1,27.32,North,0,2.5,3.4,52,0.00,,,0.00,WUHU216HW,2013-07-12 16:02:00,
2013-07-12 09:07:00,85.0,65.4,27.32,North,0,2.9,3.4,52,0.00,,,0.00,WUHU216HW,2013-07-12 16:07:00,
2013-07-12 09:12:00,85.5,65.9,27.32,NNW,338,2.9,3.8,52,0.00,,,0.00,WUHU216HW,2013-07-12 16:12:00,
2013-07-12 09:17:00,85.3,64.7,27.33,NNW,338,2.2,3.8,50,0.00,,,0.00,WUHU216HW,2013-07-12 16:17:00,
2013-07-12 09:22:00,85.1,64.5,27.33,North,0,2.5,3.4,50,0.00,,,0.00,WUHU216HW,2013-07-12 16:22:00,
2013-07-12 09:27:00,85.0,62.5,27.33,NNW,338,2.5,4.0,47,0.00,,,0.00,WUHU216HW,2013-07-12 16:27:00,
2013-07-12 09:32:00,84.8,63.5,27.33,NNW,338,1.8,4.0,49,0.00,,,0.00,WUHU216HW,2013-07-12 16:32:00,
2013-07-12 09:36:00,84.8,63.5,27.33,North,0,1.6,2.9,49,0.00,,,0.00,WUHU216HW,2013-07-12 16:36:00,
2013-07-12 09:41:00,84.6,61.6,27.33,NW,315,2.9,3.4,46,0.00,,,0.00,WUHU216HW,2013-07-12 16:41:00,
2013-07-12 09:46:00,84.4,61.4,27.33,NNW,338,1.8,3.6,46,0.00,,,0.00,WUHU216HW,2013-07-12 16:46:00,
2013-07-12 09:52:00,83.9,63.9,27.33,North,0,1.1,3.6,51,0.01,,,0.01,WUHU216HW,2013-07-12 16:52:00,
2013-07-12 09:57:00,83.3,64.4,27.33,NNE,23,0.4,2.5,53,0.01,,,0.01,WUHU216HW,2013-07-12 16:57:00,
2013-07-12 10:02:00,83.2,65.3,27.34,North,0,0.7,1.1,55,0.01,,,0.01,WUHU216HW,2013-07-12 17:02:00,
2013-07-12 10:07:00,82.8,66.0,27.35,North,0,0.9,1.6,57,0.01,,,0.01,WUHU216HW,2013-07-12 17:07:00,
2013-07-12 10:12:00,81.9,66.7,27.35,NNW,338,2.0,2.9,60,0.03,,,0.03,WUHU216HW,2013-07-12 17:12:00,
2013-07-12 10:17:00,81.0,65.4,27.35,NNW,338,2.7,4.0,59,0.03,,,0.03,WUHU216HW,2013-07-12 17:17:00,
2013-07-12 10:22:00,80.1,65.5,27.35,NW,315,3.8,5.4,61,0.04,,,0.04,WUHU216HW,2013-07-12 17:22:00,
2013-07-12 10:27:00,78.8,67.8,27.35,NNW,338,4.7,5.4,69,0.08,,,0.09,WUHU216HW,2013-07-12 17:27:00,
2013-07-12 10:32:00,77.6,68.2,27.35,NNE,23,3.1,5.4,73,0.11,,,0.12,WUHU216HW,2013-07-12 17:32:00,
2013-07-12 10:37:00,76.7,67.8,27.35,NNE,23,2.0,5.4,74,0.12,,,0.12,WUHU216HW,2013-07-12 17:37:00,
2013-07-12 10:43:00,77.0,68.1,27.35,North,0,0.4,3.8,74,0.12,,,0.12,WUHU216HW,2013-07-12 17:43:00,
2013-07-12 10:48:00,77.9,68.9,27.35,NNW,338,0.7,2.2,74,0.11,,,0.12,WUHU216HW,2013-07-12 17:48:00,
2013-07-12 10:53:00,79.4,69.1,27.35,West,270,0.4,2.0,71,0.11,,,0.12,WUHU216HW,2013-07-12 17:53:00,
2013-07-12 10:58:00,80.1,67.2,27.35,SSE,158,0.7,2.9,65,0.11,,,0.12,WUHU216HW,2013-07-12 17:58:00,
2013-07-12 11:03:00,80.6,68.2,27.34,SE,135,0.9,2.9,66,0.11,,,0.12,WUHU216HW,2013-07-12 18:03:00,
2013-07-12 11:08:00,81.2,68.2,27.33,WNW,293,0.9,2.5,65,0.09,,,0.12,WUHU216HW,2013-07-12 18:08:00,
2013-07-12 11:13:00,81.7,67.9,27.33,NW,315,1.1,2.5,63,0.09,,,0.12,WUHU216HW,2013-07-12 18:13:00,
2013-07-12 11:18:00,82.3,66.4,27.33,North,0,3.1,3.6,59,0.09,,,0.12,WUHU216HW,2013-07-12 18:18:00,
2013-07-12 11:24:00,83.0,67.7,27.33,North,0,1.1,3.1,60,0.07,,,0.12,WUHU216HW,2013-07-12 18:24:00,
2013-07-12 11:29:00,83.7,68.9,27.33,South,180,1.3,4.0,61,0.01,,,0.12,WUHU216HW,2013-07-12 18:29:00,
2013-07-12 11:34:00,84.2,70.7,27.33,WSW,248,6.0,6.7,64,0.00,,,0.12,WUHU216HW,2013-07-12 18:34:00,
2013-07-12 11:39:00,83.9,70.4,27.33,SSW,203,4.5,8.5,64,0.00,,,0.12,WUHU216HW,2013-07-12 18:39:00,
2013-07-12 11:44:00,84.1,69.7,27.33,SW,225,3.4,8.5,62,0.00,,,0.12,WUHU216HW,2013-07-12 18:44:00,
2013-07-12 11:50:00,84.1,69.7,27.33,WSW,248,1.3,5.4,62,0.00,,,0.12,WUHU216HW,2013-07-12 18:50:00,
2013-07-12 11:55:00,84.4,68.6,27.33,SSE,158,2.5,5.4,59,0.00,,,0.12,WUHU216HW,2013-07-12 18:55:00,
2013-07-12 12:00:00,84.2,68.9,27.33,SSW,203,2.2,8.1,60,0.00,,,0.12,WUHU216HW,2013-07-12 19:00:00,
2013-07-12 12:05:00,83.9,68.6,27.33,SSW,203,3.1,8.1,60,0.00,,,0.12,WUHU216HW,2013-07-12 19:05:00,
2013-07-12 12:10:00,83.9,68.6,27.33,SE,135,3.6,5.1,60,0.00,,,0.12,WUHU216HW,2013-07-12 19:10:00,
2013-07-12 12:15:00,83.7,67.9,27.32,SSE,158,1.8,5.4,59,0.00,,,0.12,WUHU216HW,2013-07-12 19:15:00,
2013-07-12 12:20:00,83.9,67.1,27.32,SSE,158,2.5,6.5,57,0.00,,,0.12,WUHU216HW,2013-07-12 19:20:00,
2013-07-12 12:25:00,84.1,67.7,27.32,SW,225,2.2,6.5,58,0.00,,,0.12,WUHU216HW,2013-07-12 19:25:00,
2013-07-12 12:31:00,84.2,66.3,27.31,SW,225,4.0,6.9,55,0.00,,,0.12,WUHU216HW,2013-07-12 19:31:00,
2013-07-12 12:35:00,84.6,66.2,27.31,SSW,203,4.9,6.9,54,0.00,,,0.12,WUHU216HW,2013-07-12 19:35:00,
2013-07-12 12:41:00,85.5,69.0,27.30,SE,135,2.5,5.6,58,0.00,,,0.12,WUHU216HW,2013-07-12 19:41:00,
2013-07-12 12:46:00,87.5,68.2,27.30,WNW,293,2.0,6.0,53,0.00,,,0.12,WUHU216HW,2013-07-12 19:46:00,
2013-07-12 12:51:00,90.5,69.4,27.30,WSW,248,1.3,6.3,50,0.00,,,0.12,WUHU216HW,2013-07-12 19:51:00,
2013-07-12 12:56:00,94.7,69.9,27.30,SSW,203,2.5,6.3,45,0.00,,,0.12,WUHU216HW,2013-07-12 19:56:00,
2013-07-12 13:01:00,96.5,69.0,27.30,SW,225,2.2,5.4,41,0.00,,,0.12,WUHU216HW,2013-07-12 20:01:00,
2013-07-12 13:06:00,99.5,69.4,27.30,SW,225,2.0,4.9,38,0.00,,,0.12,WUHU216HW,2013-07-12 20:06:00,
2013-07-12 13:11:00,99.7,67.9,27.30,SSE,158,1.8,4.9,36,0.00,,,0.12,WUHU216HW,2013-07-12 20:11:00,
2013-07-12 13:16:00,100.8,68.9,27.30,SSE,158,2.5,4.0,36,0.00,,,0.12,WUHU216HW,2013-07-12 20:16:00,
2013-07-12 13:21:00,100.4,68.5,27.29,SSE,158,2.5,4.0,36,0.00,,,0.12,WUHU216HW,2013-07-12 20:21:00,
2013-07-12 13:26:00,99.4,68.4,27.29,SSW,203,2.7,4.7,37,0.00,,,0.12,WUHU216HW,2013-07-12 20:26:00,
2013-07-12 13:31:00,99.9,68.1,27.29,SE,135,1.8,4.7,36,0.00,,,0.12,WUHU216HW,2013-07-12 20:31:00,
2013-07-12 13:37:00,99.4,66.7,27.29,SSE,158,2.5,4.9,35,0.00,,,0.12,WUHU216HW,2013-07-12 20:37:00,
2013-07-12 13:42:00,98.5,68.4,27.29,SSW,203,2.7,6.3,38,0.00,,,0.12,WUHU216HW,2013-07-12 20:42:00,
2013-07-12 13:47:00,99.0,68.9,27.29,SSE,158,4.9,6.3,38,0.00,,,0.12,WUHU216HW,2013-07-12 20:47:00,
2013-07-12 13:52:00,99.4,67.5,27.29,SSE,158,2.5,6.0,36,0.00,,,0.12,WUHU216HW,2013-07-12 20:52:00,
2013-07-12 13:57:00,99.9,66.3,27.29,SSW,203,5.4,5.6,34,0.00,,,0.12,WUHU216HW,2013-07-12 20:57:00,
2013-07-12 14:02:00,99.4,66.7,27.28,SSW,203,3.1,5.6,35,0.00,,,0.12,WUHU216HW,2013-07-12 21:02:00,
2013-07-12 14:07:00,100.4,67.7,27.28,South,180,3.1,4.7,35,0.00,,,0.12,WUHU216HW,2013-07-12 21:07:00,
2013-07-12 14:12:00,100.1,66.5,27.28,ESE,113,2.0,4.9,34,0.00,,,0.12,WUHU216HW,2013-07-12 21:12:00,
2013-07-12 14:17:00,100.3,65.9,27.28,SE,135,1.3,4.9,33,0.00,,,0.12,WUHU216HW,2013-07-12 21:17:00,
2013-07-12 14:22:00,99.5,64.4,27.27,NE,45,1.1,4.3,32,0.00,,,0.12,WUHU216HW,2013-07-12 21:22:00,
2013-07-12 14:27:00,99.2,64.1,27.27,South,180,1.1,4.7,32,0.00,,,0.12,WUHU216HW,2013-07-12 21:27:00,
2013-07-12 14:32:00,99.0,64.7,27.27,South,180,1.8,4.7,33,0.00,,,0.12,WUHU216HW,2013-07-12 21:32:00,
2013-07-12 14:37:00,98.3,63.3,27.27,WSW,248,1.3,3.8,32,0.00,,,0.12,WUHU216HW,2013-07-12 21:37:00,
2013-07-12 14:43:00,97.7,64.5,27.26,SE,135,0.9,4.3,34,0.00,,,0.12,WUHU216HW,2013-07-12 21:43:00,
2013-07-12 14:48:00,96.5,63.3,27.26,South,180,4.5,4.7,34,0.00,,,0.12,WUHU216HW,2013-07-12 21:48:00,
2013-07-12 14:53:00,95.8,63.6,27.26,SSW,203,1.6,4.7,35,0.00,,,0.12,WUHU216HW,2013-07-12 21:53:00,
2013-07-12 14:58:00,94.9,63.5,27.25,SSE,158,3.1,4.9,36,0.00,,,0.12,WUHU216HW,2013-07-12 21:58:00,
2013-07-12 15:03:00,95.0,63.7,27.25,SSE,158,1.6,5.4,36,0.00,,,0.12,WUHU216HW,2013-07-12 22:03:00,
2013-07-12 15:08:00,95.2,63.1,27.25,South,180,3.4,5.4,35,0.00,,,0.12,WUHU216HW,2013-07-12 22:08:00,
2013-07-12 15:13:00,94.9,62.7,27.25,SW,225,3.1,6.3,35,0.00,,,0.12,WUHU216HW,2013-07-12 22:13:00,
2013-07-12 15:19:00,95.2,63.1,27.25,SW,225,2.2,6.3,35,0.00,,,0.12,WUHU216HW,2013-07-12 22:19:00,
2013-07-12 15:24:00,95.4,64.0,27.25,SSE,158,1.6,4.0,36,0.00,,,0.12,WUHU216HW,2013-07-12 22:24:00,
2013-07-12 15:29:00,96.5,64.2,27.25,South,180,2.2,4.0,35,0.00,,,0.12,WUHU216HW,2013-07-12 22:29:00,
2013-07-12 15:34:00,96.1,63.0,27.24,SE,135,3.6,4.7,34,0.00,,,0.12,WUHU216HW,2013-07-12 22:34:00,
2013-07-12 15:39:00,95.0,61.3,27.24,SSE,158,4.7,5.4,33,0.00,,,0.12,WUHU216HW,2013-07-12 22:39:00,
2013-07-12 15:45:00,94.0,61.1,27.24,East,90,0.9,5.4,34,0.00,,,0.12,WUHU216HW,2013-07-12 22:45:00,
2013-07-12 15:50:00,93.6,60.9,27.23,SSW,203,3.1,3.8,34,0.00,,,0.12,WUHU216HW,2013-07-12 22:50:00,
2013-07-12 15:55:00,93.1,61.1,27.23,SE,135,2.5,4.9,35,0.00,,,0.12,WUHU216HW,2013-07-12 22:55:00,
2013-07-12 16:00:00,92.9,61.8,27.23,SE,135,4.3,4.9,36,0.00,,,0.12,WUHU216HW,2013-07-12 23:00:00,
2013-07-12 16:05:00,92.7,61.7,27.23,SSE,158,3.4,4.3,36,0.00,,,0.12,WUHU216HW,2013-07-12 23:05:00,
2013-07-12 16:10:00,92.2,61.2,27.23,SE,135,2.5,4.3,36,0.00,,,0.12,WUHU216HW,2013-07-12 23:10:00,
2013-07-12 16:15:00,91.8,60.0,27.23,SSE,158,1.8,4.5,35,0.00,,,0.12,WUHU216HW,2013-07-12 23:15:00,
2013-07-12 16:20:00,91.4,60.6,27.22,ESE,113,3.1,4.5,36,0.00,,,0.12,WUHU216HW,2013-07-12 23:20:00,
2013-07-12 16:25:00,91.3,60.4,27.23,East,90,2.5,4.3,36,0.00,,,0.12,WUHU216HW,2013-07-12 23:25:00,
2013-07-12 16:30:00,91.1,60.2,27.23,SSE,158,2.9,4.3,36,0.00,,,0.12,WUHU216HW,2013-07-12 23:30:00,
2013-07-12 16:35:00,91.3,62.0,27.23,West,270,0.9,4.0,38,0.00,,,0.12,WUHU216HW,2013-07-12 23:35:00,
2013-07-12 16:40:00,91.4,62.1,27.22,NNW,338,2.2,3.1,38,0.00,,,0.12,WUHU216HW,2013-07-12 23:40:00,
2013-07-12 16:46:00,91.3,61.2,27.23,NE,45,2.9,4.0,37,0.00,,,0.12,WUHU216HW,2013-07-12 23:46:00,
2013-07-12 16:51:00,91.4,60.6,27.23,SSE,158,4.9,5.4,36,0.00,,,0.12,WUHU216HW,2013-07-12 23:51:00,
2013-07-12 16:56:00,91.8,60.8,27.22,SE,135,2.9,5.1,36,0.00,,,0.12,WUHU216HW,2013-07-12 23:56:00,
2013-07-12 17:01:00,92.0,61.0,27.22,SE,135,3.1,5.1,36,0.00,,,0.12,WUHU216HW,2013-07-13 00:01:00,
2013-07-12 17:06:00,91.8,60.8,27.22,South,180,2.5,5.1,36,0.00,,,0.12,WUHU216HW,2013-07-13 00:06:00,
2013-07-12 17:11:00,91.4,60.6,27.22,SSW,203,4.3,5.4,36,0.00,,,0.12,WUHU216HW,2013-07-13 00:11:00,
2013-07-12 17:16:00,91.4,60.6,27.22,SSE,158,4.0,5.4,36,0.00,,,0.12,WUHU216HW,2013-07-13 00:16:00,
2013-07-12 17:21:00,91.4,62.9,27.22,West,270,2.2,4.9,39,0.00,,,0.12,WUHU216HW,2013-07-13 00:21:00,
2013-07-12 17:26:00,91.4,62.1,27.22,SSE,158,3.1,6.3,38,0.00,,,0.12,WUHU216HW,2013-07-13 00:26:00,
2013-07-12 17:31:00,91.4,62.1,27.22,SSW,203,6.3,6.3,38,0.00,,,0.12,WUHU216HW,2013-07-13 00:31:00,
2013-07-12 17:37:00,91.6,60.0,27.22,West,270,3.1,7.6,35,0.00,,,0.12,WUHU216HW,2013-07-13 00:37:00,
2013-07-12 17:42:00,91.4,60.6,27.22,WSW,248,2.2,7.6,36,0.00,,,0.12,WUHU216HW,2013-07-13 00:42:00,
2013-07-12 17:47:00,91.6,60.8,27.22,ESE,113,4.9,5.8,36,0.00,,,0.12,WUHU216HW,2013-07-13 00:47:00,
2013-07-12 17:52:00,91.6,60.8,27.22,South,180,1.8,5.8,36,0.00,,,0.12,WUHU216HW,2013-07-13 00:52:00,
2013-07-12 17:57:00,91.6,60.8,27.22,WSW,248,3.8,7.6,36,0.00,,,0.12,WUHU216HW,2013-07-13 00:57:00,
2013-07-12 18:02:00,91.3,60.4,27.22,WSW,248,6.0,7.6,36,0.00,,,0.12,WUHU216HW,2013-07-13 01:02:00,
2013-07-12 18:07:00,90.9,61.7,27.22,WNW,293,2.9,6.9,38,0.00,,,0.12,WUHU216HW,2013-07-13 01:07:00,
2013-07-12 18:12:00,90.5,62.1,27.22,SSW,203,1.8,6.9,39,0.00,,,0.12,WUHU216HW,2013-07-13 01:12:00,
2013-07-12 18:18:00,90.7,61.5,27.22,SSE,158,5.4,7.6,38,0.00,,,0.12,WUHU216HW,2013-07-13 01:18:00,
2013-07-12 18:23:00,91.1,61.8,27.22,SSW,203,3.4,7.6,38,0.00,,,0.12,WUHU216HW,2013-07-13 01:23:00,
2013-07-12 18:28:00,90.4,61.2,27.22,SW,225,5.4,6.3,38,0.00,,,0.12,WUHU216HW,2013-07-13 01:28:00,
2013-07-12 18:33:00,90.2,61.8,27.22,SSE,158,2.2,6.9,39,0.00,,,0.12,WUHU216HW,2013-07-13 01:33:00,
2013-07-12 18:38:00,90.0,60.8,27.23,South,180,2.2,6.9,38,0.00,,,0.12,WUHU216HW,2013-07-13 01:38:00,
2013-07-12 18:43:00,90.2,61.8,27.23,NNW,338,4.0,5.1,39,0.00,,,0.12,WUHU216HW,2013-07-13 01:43:00,
2013-07-12 18:49:00,90.0,61.7,27.23,SSE,158,1.3,6.3,39,0.00,,,0.12,WUHU216HW,2013-07-13 01:49:00,
2013-07-12 18:54:00,89.6,62.1,27.22,SW,225,1.6,6.3,40,0.00,,,0.12,WUHU216HW,2013-07-13 01:54:00,
2013-07-12 18:59:00,89.5,61.9,27.23,ESE,113,4.3,6.5,40,0.00,,,0.12,WUHU216HW,2013-07-13 01:59:00,
2013-07-12 19:04:00,89.3,62.5,27.23,SE,135,2.2,6.5,41,0.00,,,0.12,WUHU216HW,2013-07-13 02:04:00,
2013-07-12 19:09:00,88.9,62.2,27.23,SSW,203,1.8,6.3,41,0.00,,,0.12,WUHU216HW,2013-07-13 02:09:00,
2013-07-12 19:15:00,88.6,63.2,27.23,SE,135,4.5,5.8,43,0.00,,,0.12,WUHU216HW,2013-07-13 02:15:00,
2013-07-12 19:20:00,88.0,62.7,27.23,West,270,3.4,6.0,43,0.00,,,0.12,WUHU216HW,2013-07-13 02:20:00,
2013-07-12 19:25:00,87.7,62.4,27.24,SSW,203,3.8,6.0,43,0.00,,,0.12,WUHU216HW,2013-07-13 02:25:00,
2013-07-12 19:30:00,87.5,61.6,27.24,SSW,203,5.4,5.4,42,0.00,,,0.12,WUHU216HW,2013-07-13 02:30:00,
2013-07-12 19:35:00,87.3,61.5,27.24,South,180,2.9,5.4,42,0.00,,,0.12,WUHU216HW,2013-07-13 02:35:00,
2013-07-12 19:40:00,87.1,61.9,27.24,WSW,248,2.2,5.4,43,0.00,,,0.12,WUHU216HW,2013-07-13 02:40:00,
2013-07-12 19:45:00,86.9,61.7,27.24,East,90,2.9,3.6,43,0.00,,,0.12,WUHU216HW,2013-07-13 02:45:00,
2013-07-12 19:50:00,86.8,62.8,27.25,South,180,3.4,5.8,45,0.00,,,0.12,WUHU216HW,2013-07-13 02:50:00,
2013-07-12 19:55:00,86.6,63.3,27.25,SSW,203,2.5,5.8,46,0.00,,,0.12,WUHU216HW,2013-07-13 02:55:00,
2013-07-12 20:00:00,86.4,63.2,27.25,ESE,113,3.4,4.0,46,0.00,,,0.12,WUHU216HW,2013-07-13 03:00:00,
2013-07-12 20:01:00,86.2,63.0,27.25,SW,225,3.1,3.1,46,0.00,,,0.12,WUHU216HW,2013-07-13 03:01:00,
2013-07-12 20:05:00,86.2,63.0,27.25,SW,225,3.1,3.6,46,0.00,,,0.12,WUHU216HW,2013-07-13 03:05:00,
2013-07-12 20:10:00,86.2,63.0,27.25,SW,225,3.1,3.1,46,0.00,,,0.12,WUHU216HW,2013-07-13 03:10:00,
2013-07-12 20:31:00,85.1,63.3,27.25,SSW,203,1.8,1.8,48,0.00,,,0.12,WUHU216HW,2013-07-13 03:31:00,
2013-07-12 20:36:00,85.1,63.3,27.25,SSW,203,1.8,1.8,48,0.00,,,0.12,WUHU216HW,2013-07-13 03:36:00,
2013-07-12 21:00:00,84.4,62.0,27.26,SSE,158,2.5,2.5,47,0.00,,,0.12,WUHU216HW,2013-07-13 04:00:00,
2013-07-12 21:01:00,84.4,62.0,27.26,SSE,158,2.5,2.5,47,0.00,,,0.12,WUHU216HW,2013-07-13 04:01:00,
2013-07-12 21:02:00,84.4,62.0,27.26,SSE,158,2.5,2.5,47,0.00,,,0.12,WUHU216HW,2013-07-13 04:02:00,
2013-07-12 21:07:00,84.4,62.0,27.26,SSE,158,2.5,2.5,47,0.00,,,0.12,WUHU216HW,2013-07-13 04:07:00,
2013-07-12 21:30:00,83.9,62.1,27.27,WSW,248,1.1,1.1,48,0.00,,,0.12,WUHU216HW,2013-07-13 04:30:00,
2013-07-12 21:35:00,83.9,62.1,27.27,WSW,248,1.1,1.1,48,0.00,,,0.12,WUHU216HW,2013-07-13 04:35:00,
2013-07-12 22:00:00,83.2,62.6,27.27,SSW,203,2.7,2.7,50,0.00,,,0.12,WUHU216HW,2013-07-13 05:00:00,
2013-07-12 22:05:00,83.2,62.6,27.27,SSW,203,2.7,2.7,50,0.00,,,0.12,WUHU216HW,2013-07-13 05:05:00,
2013-07-12 22:30:00,82.6,62.7,27.28,SSE,158,1.1,1.1,51,0.00,,,0.12,WUHU216HW,2013-07-13 05:30:00,
2013-07-12 22:35:00,82.6,62.7,27.28,SSE,158,1.1,1.1,51,0.00,,,0.12,WUHU216HW,2013-07-13 05:35:00,
2013-07-12 23:00:00,81.9,63.0,27.28,SSE,158,0.2,0.2,53,0.00,,,0.12,WUHU216HW,2013-07-13 06:00:00,
2013-07-12 23:05:00,81.9,63.0,27.28,SSE,158,0.2,0.2,53,0.00,,,0.12,WUHU216HW,2013-07-13 06:05:00,
2013-07-12 23:30:00,80.8,62.6,27.29,ENE,68,0.0,0.0,54,0.00,,,0.12,WUHU216HW,2013-07-13 06:30:00,
2013-07-12 23:35:00,80.8,62.6,27.29,ENE,68,0.0,0.0,54,0.00,,,0.12,WUHU216HW,2013-07-13 06:35:00,